Wind_Speed
65 65 67 70 74 79 84 90 95 96 94 98 104 109 114 118 118 115 111 107 101 96 91 88 86 84 83 82 82 82 82 82 83 83 84 86 89 92
66 68 71 76 80 85 90 96 102 107 107 106 111 115 116 113 106 101 94 89 84 81 80 80 81 81 80 78 76 75 74 74 74 76 78 80 82 83
69 73 78 82 87 92 98 103 108 114 118 117 115 110 102 93 85 79 75 75 77 80 82 81 80 77 74 71 70 69 69 69 68 70 72 73 74 76
74 79 84 89 94 100 106 111 116 119 121 117 104 89 79 73 69 67 68 73 78 80 77 73 71 68 66 65 65 65 65 66 65 65 66 68 69 70
81 87 92 98 103 109 115 118 120 116 108 98 86 74 68 65 65 66 68 70 70 68 65 63 61 59 58 59 60 60 61 61 61 62 63 65 67 67
88 94 100 106 112 117 119 119 113 102 90 82 77 72 68 67 68 69 65 59 53 51 50 50 50 51 51 53 53 53 53 54 55 57 59 62 65 66
94 101 107 113 118 119 116 108 99 90 83 79 77 74 70 69 68 65 57 47 40 43 46 45 47 47 47 46 43 42 41 42 45 49 53 57 61 63
100 107 113 117 116 110 102 95 90 86 82 79 75 71 66 64 60 52 47 41 34 36 42 40 44 42 39 35 30 26 25 26 29 33 40 47 54 58
107 113 116 113 106 98 91 87 83 77 73 69 63 57 54 49 46 42 39 36 32 33 35 34 36 33 27 20 14 13 14 17 20 24 28 34 43 52
112 114 110 102 93 88 85 80 72 63 56 51 46 42 39 37 37 36 32 28 26 31 32 28 26 23 16 9 7 9 13 18 22 25 27 29 34 43
110 106 98 91 85 80 76 68 57 46 39 35 33 31 32 34 34 31 27 24 24 27 28 24 21 16 11 9 9 11 15 20 25 26 26 26 27 35
101 92 86 81 76 70 63 52 40 31 26 24 25 28 30 31 30 28 26 24 22 23 24 22 19 15 12 13 14 15 16 21 24 23 20 17 15 21
90 82 76 72 64 56 46 37 29 24 21 21 23 24 25 25 25 25 25 24 23 23 24 22 20 17 15 15 19 17 15 17 18 17 15 11 4 7
81 74 68 60 49 40 33 28 25 23 22 22 21 21 22 21 22 23 24 26 27 27 26 23 19 17 16 15 15 13 10 10 11 11 11 8 6 12
71 64 56 46 35 29 25 24 23 21 20 19 20 21 21 21 21 21 23 26 30 31 27 22 18 16 13 8 5 3 2 5 8 10 8 4 8 17
59 51 42 34 28 25 25 23 21 19 19 19 20 20 20 20 19 19 21 23 26 28 24 20 18 15 10 7 6 6 7 9 11 12 12 8 9 17
47 39 32 27 27 28 25 22 20 20 20 20 20 20 20 20 19 19 20 22 23 22 20 18 17 15 13 12 11 12 12 13 16 18 19 16 10 14
38 30 26 25 25 22 20 20 20 21 21 21 21 20 19 18 18 18 20 21 21 19 17 16 16 15 15 15 16 15 16 17 19 21 22 21 17 12
30 25 25 25 22 19 20 21 22 22 23 23 22 21 19 18 17 17 18 19 19 16 15 14 14 14 15 15 16 16 16 18 21 22 21 20 18 15
26 25 24 21 21 21 22 22 22 23 23 23 22 20 18 17 16 15 16 16 15 13 11 12 13 12 12 14 14 14 15 17 20 22 21 19 19 19
25 24 21 22 22 22 21 21 22 22 23 23 22 20 17 15 14 13 13 13 12 12 9 8 9 10 10 12 13 13 13 15 18 21 23 22 21 22
22 21 21 21 21 21 22 22 22 22 22 22 21 19 17 14 12 11 10 10 9 9 8 6 7 8 8 11 13 12 12 13 16 20 23 25 24 24
20 20 19 20 21 22 23 23 22 20 20 19 19 18 16 13 11 10 9 8 7 6 5 6 5 7 8 10 12 13 13 12 13 17 21 24 27 29
Wind_Direction
305 304 303 303 303 304 304 305 305 304 304 304 302 300 299 298 297 295 292 290 288 287 286 285 283 281 279 277 274 271 269 266 263 260 258 255 252 248
305 305 305 305 306 306 306 306 306 304 304 303 301 300 299 297 295 292 291 291 290 290 288 287 286 284 282 280 276 272 268 265 262 259 257 254 251 248
307 307 308 308 309 308 307 307 306 305 304 304 303 301 298 295 293 292 293 293 293 292 291 289 287 285 282 279 275 272 268 265 262 259 257 254 252 248
309 310 310 310 310 309 308 307 307 306 306 305 304 300 297 295 294 294 295 295 295 294 292 289 286 282 280 277 275 271 268 265 263 261 258 255 252 249
311 311 312 312 311 310 309 309 308 308 306 304 303 301 298 296 295 297 299 299 298 295 292 289 285 281 278 276 274 271 269 268 265 262 258 255 252 248
312 313 313 313 312 311 310 310 309 307 305 304 302 301 299 297 298 301 302 301 300 297 295 291 288 284 281 278 277 274 272 269 266 263 258 255 251 247
314 314 314 313 313 313 312 310 308 306 304 302 300 299 298 297 299 302 303 301 301 299 294 294 291 289 287 285 282 279 275 272 269 265 260 255 251 246
314 314 315 315 314 313 311 309 308 306 304 301 299 298 297 298 301 303 304 305 305 296 294 296 295 294 291 290 288 286 285 283 279 272 264 257 250 244
315 316 316 316 314 313 311 309 307 305 303 300 300 299 299 301 303 307 310 312 309 301 301 304 301 298 293 292 292 302 308 307 299 288 276 264 252 242
317 318 317 316 315 313 312 312 311 309 305 303 302 302 304 307 312 317 319 319 315 310 316 318 310 305 296 293 299 312 319 320 315 304 290 274 258 243
320 319 318 317 316 316 316 317 316 314 311 309 309 311 315 318 321 324 327 328 324 320 324 326 324 319 303 288 295 308 320 322 319 311 300 286 265 243
320 319 318 317 318 318 319 321 324 323 320 316 317 319 322 324 326 331 336 339 337 332 331 329 325 322 307 294 296 306 316 320 321 320 316 305 276 243
321 320 319 319 319 319 323 327 331 333 331 328 327 328 331 334 337 341 344 345 345 340 335 329 321 313 304 288 292 304 310 315 320 326 333 339 326 205
323 322 321 322 322 324 328 332 335 337 337 337 340 344 345 347 347 348 349 348 347 346 343 338 330 321 310 295 291 298 303 313 327 343 358 18 89 134
323 323 324 326 327 329 332 335 338 341 346 349 349 349 350 352 353 353 353 351 348 349 351 350 347 343 337 323 311 308 339 359 6 12 18 50 136 146
324 325 327 329 332 335 337 341 347 352 354 352 349 348 349 351 355 356 355 353 352 352 357 1 1 6 20 42 60 67 60 45 34 34 43 70 144 165
325 326 328 330 333 335 339 346 350 351 349 347 347 347 347 349 354 357 358 358 360 3 8 13 19 35 58 63 65 73 68 57 53 55 56 63 98 159
327 327 328 329 331 336 341 343 343 342 341 340 340 342 345 348 351 356 0 4 9 14 21 30 40 57 66 74 81 79 73 71 65 60 59 62 73 117
329 331 330 331 333 337 337 337 336 336 335 334 334 334 336 340 345 351 358 6 13 22 32 42 53 65 78 87 90 82 80 76 70 66 67 69 71 89
330 330 331 332 334 334 334 335 336 337 337 337 335 333 330 330 334 342 351 2 14 27 41 51 59 71 93 104 100 90 84 76 73 75 76 77 79 89
328 330 332 333 334 335 336 336 337 339 341 342 342 339 335 330 329 333 341 352 8 25 44 60 67 75 99 121 119 107 96 83 74 78 82 84 91 97
330 333 336 338 339 338 338 337 336 337 339 342 345 344 341 336 333 331 331 338 354 15 36 60 80 90 104 131 139 132 118 100 85 78 85 91 100 111
335 340 343 343 341 340 339 340 340 341 342 345 349 352 351 348 345 339 328 322 327 348 24 56 89 113 119 124 140 150 149 135 112 94 91 98 106 114
Height
5615 5607 5598 5589 5580 5569 5557 5544 5533 5527 5528 5519 5500 5484 5465 5448 5431 5414 5401 5388 5378 5370 5363 5357 5351 5347 5343 5341 5339 5337 5336 5336 5337 5340 5343 5346 5351 5359
5599 5590 5581 5571 5561 5549 5536 5523 5506 5492 5489 5490 5472 5453 5434 5415 5398 5382 5369 5357 5348 5341 5335 5328 5323 5317 5313 5311 5309 5307 5306 5306 5308 5310 5312 5316 5321 5329
5582 5573 5562 5551 5540 5527 5513 5498 5482 5461 5447 5447 5436 5417 5398 5382 5371 5358 5346 5335 5325 5317 5309 5302 5295 5289 5285 5283 5281 5280 5279 5279 5281 5284 5285 5290 5295 5303
5565 5554 5543 5530 5517 5502 5486 5470 5453 5433 5411 5400 5396 5382 5369 5356 5347 5339 5330 5318 5304 5293 5283 5276 5270 5265 5261 5258 5256 5255 5254 5255 5257 5260 5263 5267 5272 5277
5546 5534 5521 5507 5492 5475 5457 5438 5420 5401 5380 5363 5358 5352 5344 5336 5326 5319 5310 5299 5284 5270 5261 5254 5248 5243 5240 5237 5234 5232 5232 5234 5235 5237 5239 5242 5248 5255
5526 5511 5496 5481 5463 5445 5426 5406 5386 5369 5355 5342 5333 5328 5322 5314 5304 5296 5289 5280 5267 5254 5245 5237 5231 5226 5222 5218 5216 5215 5214 5213 5214 5215 5217 5220 5224 5232
5505 5489 5471 5453 5434 5413 5391 5372 5354 5342 5332 5322 5313 5306 5301 5293 5285 5277 5269 5263 5256 5242 5232 5226 5217 5212 5207 5203 5200 5199 5197 5197 5196 5196 5197 5199 5204 5210
5483 5466 5447 5427 5405 5384 5363 5345 5330 5317 5307 5298 5290 5284 5279 5273 5267 5260 5253 5247 5242 5234 5221 5216 5206 5200 5195 5191 5188 5187 5186 5185 5183 5182 5180 5181 5185 5192
5459 5441 5421 5399 5377 5358 5342 5327 5313 5299 5286 5275 5269 5265 5261 5258 5253 5248 5241 5233 5227 5219 5212 5207 5197 5190 5185 5182 5181 5180 5179 5178 5175 5172 5169 5167 5168 5172
5434 5412 5393 5374 5354 5337 5321 5308 5294 5281 5270 5262 5257 5253 5250 5246 5241 5237 5231 5226 5220 5211 5204 5198 5190 5184 5179 5178 5177 5176 5175 5172 5169 5165 5160 5156 5154 5156
5411 5388 5366 5350 5335 5318 5303 5290 5279 5269 5261 5254 5249 5245 5242 5238 5233 5229 5225 5221 5215 5207 5199 5192 5186 5181 5178 5176 5174 5172 5170 5167 5163 5157 5151 5146 5141 5140
5392 5370 5349 5332 5317 5303 5290 5279 5270 5263 5257 5251 5247 5242 5238 5234 5228 5223 5219 5215 5210 5203 5196 5189 5184 5180 5177 5174 5171 5169 5166 5164 5159 5153 5147 5140 5134 5130
5369 5353 5336 5319 5305 5293 5283 5274 5266 5260 5255 5250 5246 5241 5236 5231 5226 5221 5215 5210 5206 5200 5193 5187 5181 5177 5174 5171 5168 5166 5165 5162 5158 5152 5147 5141 5135 5130
5348 5334 5320 5307 5296 5287 5279 5272 5266 5260 5254 5249 5245 5240 5235 5230 5225 5220 5214 5207 5201 5195 5189 5183 5177 5173 5170 5167 5166 5165 5164 5161 5158 5153 5149 5145 5142 5140
5335 5321 5309 5298 5290 5283 5277 5271 5266 5260 5254 5249 5244 5239 5235 5230 5224 5219 5213 5207 5199 5192 5186 5180 5175 5171 5167 5164 5164 5164 5163 5162 5159 5156 5152 5150 5150 5152
5326 5314 5303 5294 5287 5281 5276 5270 5264 5258 5253 5249 5244 5239 5234 5229 5224 5219 5214 5208 5201 5193 5187 5181 5176 5171 5168 5166 5166 5166 5166 5164 5162 5159 5156 5155 5156 5160
5318 5309 5300 5293 5286 5279 5273 5268 5263 5258 5253 5248 5243 5239 5233 5228 5223 5219 5214 5208 5202 5195 5190 5185 5180 5176 5173 5173 5172 5171 5171 5169 5167 5164 5162 5161 5161 5164
5312 5304 5298 5291 5285 5279 5273 5268 5263 5258 5253 5247 5242 5237 5233 5228 5223 5219 5214 5209 5203 5198 5193 5189 5185 5183 5181 5180 5179 5179 5178 5176 5174 5172 5170 5169 5168 5169
5307 5301 5295 5290 5284 5278 5273 5267 5262 5256 5251 5246 5241 5236 5232 5228 5223 5219 5215 5210 5206 5201 5197 5194 5191 5189 5188 5187 5187 5186 5185 5183 5182 5181 5179 5178 5177 5176
5304 5299 5293 5287 5282 5276 5271 5266 5260 5255 5249 5243 5238 5234 5230 5226 5223 5219 5215 5212 5208 5204 5201 5199 5197 5195 5194 5194 5194 5194 5193 5191 5190 5189 5188 5187 5187 5186
5302 5297 5291 5286 5280 5274 5269 5264 5258 5253 5247 5242 5236 5232 5227 5224 5221 5218 5215 5213 5210 5207 5204 5203 5201 5201 5200 5200 5201 5201 5201 5200 5200 5198 5197 5198 5198 5198
5300 5295 5289 5284 5278 5272 5267 5261 5256 5250 5245 5240 5235 5230 5225 5222 5218 5216 5214 5212 5210 5208 5206 5205 5204 5204 5204 5205 5206 5207 5207 5208 5208 5208 5208 5208 5209 5210
5298 5293 5288 5282 5276 5271 5265 5259 5253 5248 5243 5238 5234 5229 5224 5220 5217 5215 5213 5211 5210 5209 5208 5207 5207 5207 5207 5208 5209 5211 5212 5213 5215 5216 5217 5218 5219 5220